Weather History for Nashville, TN

Change the Weather History Date:

Friday, August 23, 2013

  Actual Average Record
Temperature  
Mean Temperature 80 °F 78 °F  
Max Temperature 90 °F 89 °F 103 °F (2007)
Min Temperature 70 °F 68 °F 54 °F (1956)
Degree Days  
Heating Degree Days 0 0  
Month to date heating degree days 0 0  
Since 1 June heating degree days 0 3  
Since 1 July heating degree days 0 0  
Cooling Degree Days 15 13  
Month to date cooling degree days 278 320  
Year to date cooling degree days 1261 1269  
Since 1 June cooling degree days 1054 1090  
Growing Degree Days 30 (Base 50)    
Moisture  
Dew Point 70 °F    
Average Humidity 72    
Maximum Humidity 97    
Minimum Humidity 47    
Precipitation  
Precipitation 0.32 in 0.10 in 1.86 in (1879)
Month to date precipitation 1.94 2.40  
Year to date precipitation 37.46 31.48  
Snow  
Snow 0.00 in 0.00 in 0.00 in (2002)
Month to date snowfall 0.0 0.0  
Since 1 June snowfall 0.0 0.0  
Since 1 July snowfall 0.0 0.0  
Snow Depth 0.00 in    
Sea Level Pressure  
Sea Level Pressure 30.05 in    
Wind  
Wind Speed 3 mph (North)    
Max Wind Speed 18 mph    
Max Gust Speed 22 mph    
Visibility 9 miles    
Events Rain , Thunderstorm    
T = Trace of Precipitation, MM = Missing Value Source: NWS Daily Summary

Daily Weather History Graph

Daily Weather History Graph

Search for Another Location

Airport:

Trip Planner

Search our weather history database for the weather conditions in past years. The results will help you decide how hot, cold, wet, or windy it might be!

Date:

Astronomy

Aug. 23, 2013 Rise Set
Actual Time 6:11 AM CDT 7:26 PM CDT
Civil Twilight 5:44 AM CDT 7:53 PM CDT
Nautical Twilight 5:12 AM CDT 8:24 PM CDT
Astronomical Twilight 4:39 AM CDT 8:57 PM CDT
Moon 8:53 PM CDT (8/23) 8:59 AM CDT (8/23)
Length of Visible Light 14h 08m
Length of Day
13h 14m
Waning Gibbous, 91% of the Moon is Illuminated
Aug 23
Waning Gibbous
Aug 28
Last Quarter
Sep 5
New
Sep 12
First Quarter
Sep 19
Full

Hourly Weather History & Observations

Time (CDT) Temp. Heat Index Dew Point Humidity Pressure Visibility Wind Dir Wind Speed Gust Speed Precip Events Conditions
12:53 AM 75.0 °F - 70.0 °F 84% 30.05 in 10.0 mi Calm Calm - N/A   Scattered Clouds
1:53 AM 75.0 °F - 70.0 °F 84% 30.04 in 10.0 mi WNW 3.5 mph - N/A   Scattered Clouds
2:53 AM 73.0 °F - 70.0 °F 90% 30.04 in 10.0 mi Calm Calm - N/A   Scattered Clouds
3:53 AM 72.0 °F - 69.1 °F 91% 30.04 in 9.0 mi Calm Calm - N/A   Scattered Clouds
4:53 AM 71.1 °F - 69.1 °F 93% 30.04 in 8.0 mi Calm Calm - N/A   Scattered Clouds
5:53 AM 70.0 °F - 68.0 °F 93% 30.06 in 8.0 mi Calm Calm - N/A   Scattered Clouds
6:53 AM 71.1 °F - 69.1 °F 93% 30.07 in 7.0 mi Calm Calm - N/A   Mostly Cloudy
7:53 AM 75.0 °F - 71.1 °F 87% 30.08 in 9.0 mi Calm Calm - N/A   Mostly Cloudy
8:53 AM 80.1 °F 83.6 °F 71.1 °F 74% 30.09 in 10.0 mi Calm Calm - N/A   Mostly Cloudy
9:53 AM 82.9 °F 87.0 °F 70.0 °F 65% 30.09 in 10.0 mi Calm Calm - N/A   Scattered Clouds
10:53 AM 86.0 °F 90.7 °F 70.0 °F 59% 30.08 in 10.0 mi Variable 6.9 mph - N/A   Scattered Clouds
11:53 AM 87.1 °F 90.6 °F 68.0 °F 53% 30.07 in 10.0 mi Calm Calm - N/A   Scattered Clouds
12:53 PM 89.1 °F 93.7 °F 69.1 °F 52% 30.05 in 10.0 mi NNE 3.5 mph - N/A   Mostly Cloudy
1:53 PM 89.1 °F 92.1 °F 66.9 °F 48% 30.03 in 10.0 mi NNE 4.6 mph - N/A   Mostly Cloudy
2:53 PM 88.0 °F 91.4 °F 68.0 °F 51% 30.01 in 10.0 mi East 4.6 mph - N/A   Mostly Cloudy
3:27 PM 84.2 °F 87.3 °F 68.0 °F 58% 30.03 in 10.0 mi North 16.1 mph 19.6 mph N/A Thunderstorm Thunderstorm
3:39 PM 75.2 °F - 69.8 °F 83% 30.03 in 1.8 mi NW 11.5 mph 19.6 mph 0.03 in Rain , Thunderstorm Thunderstorms and Rain
3:47 PM 75.2 °F - 69.8 °F 83% 30.02 in 3.0 mi West 10.4 mph 20.7 mph 0.26 in Rain , Thunderstorm Light Thunderstorms and Rain
3:53 PM 75.0 °F - 71.1 °F 87% 30.00 in 3.0 mi WNW 5.8 mph - 0.31 in Rain , Thunderstorm Light Thunderstorms and Rain
4:13 PM 77.0 °F - 69.8 °F 78% 30.03 in 9.0 mi Calm Calm - 0.01 in Rain Light Rain
4:53 PM 80.1 °F 84.2 °F 73.0 °F 79% 30.04 in 10.0 mi Calm Calm - 0.01 in   Mostly Cloudy
5:53 PM 79.0 °F - 70.0 °F 74% 30.02 in 10.0 mi North 9.2 mph - N/A   Overcast
6:53 PM 78.1 °F - 69.1 °F 74% 30.03 in 10.0 mi North 6.9 mph - N/A   Mostly Cloudy
7:53 PM 75.9 °F - 70.0 °F 82% 30.04 in 10.0 mi NE 6.9 mph - N/A   Mostly Cloudy
8:53 PM 75.0 °F - 70.0 °F 84% 30.06 in 10.0 mi NNE 3.5 mph - N/A   Scattered Clouds
9:53 PM 75.0 °F - 70.0 °F 84% 30.07 in 9.0 mi Calm Calm - N/A   Scattered Clouds
10:53 PM 72.0 °F - 69.1 °F 91% 30.07 in 7.0 mi Calm Calm - N/A   Clear
11:53 PM 72.0 °F - 69.1 °F 91% 30.09 in 9.0 mi North 3.5 mph - N/A   Clear